Location: Nemiskam
(49.4820°N, 111.2775°W)
Time: 09:53:04
(UTC+00:00)

Tiangong - Pass Details

Date: 05 December 2022
Orbit: 383 x 386 km, 41.5° (Epoch: 04 February)

Event Time Altitude Azimuth Distance (km) Brightness Sun altitude
Rises 00:07:43 0° 223° (SW) 2,246 3.4 -6.5°
Maximum altitude 00:12:12 14° 164° (SSE) 1,196 0.5 -7.2°
Drops below altitude 10° 00:13:54 10° 131° (SE) 1,399 0.5 -7.4°
Enters shadow 00:15:51 - 110° (ESE) 1,960 1.0 -7.7°
